User: anonymous   Login
Location: Unspecified
(0.0000°N, 0.0000°E)
Time: 18:28:11
(UTC+02:00)
Language:

BREEZE-M DEB (TANK) - Orbit

View from above orbital plane
View from above orbital plane
View from above satellite
View from above satellite

Ground track
Ground track

The orbit data is extracted from the following two-line orbital elements,

1 33374U 08044B   16179.31810870  .00000398  00000-0  11594-3 0  9991
2 33374  49.4424 173.3931 5440800 231.2878  66.2321  4.86360055136724
Epoch (UTC): 27 June 2016 07:38:04
Eccentricity: 0.5440800
inclination: 49.4424°
perigee height: 331 km
apogee height: 16343 km
right ascension of ascending node: 173.3931°
argument of perigee: 231.2878°
revolutions per day: 4.86360055
mean anomaly at epoch: 66.2321°
orbit number at epoch: 13672

The dashed part of the orbit path shows where the satellite is in the earth's shadow,  

DLR